,,,PA_Meas_PMT16A,,PR_Meas_QMR101_102,,RH_Meas_QMH101,,SR_Meas_QMS101,,TA_Meas_QMH101,,GenWind,,GenWind,
date,time,status,PA,status,PR,status,RH,status,SR,status,TA,status,DirAvg,status,SpdAvg,
2010-10-29, 00:00:04,VALID,1001.98,VALID,0,VALID,91.6763,VALID,0,VALID,25.9232,VALID,4,VALID,1.00156,
2010-10-29, 00:01:04,VALID,1001.98,VALID,0,VALID,91.3711,VALID,0,VALID,25.9427,VALID,11,VALID,1.32187,
2010-10-29, 00:02:04,VALID,1001.98,VALID,0,VALID,91.2414,VALID,0.100563,VALID,25.9622,VALID,21,VALID,0.871875,
2010-10-29, 00:03:04,VALID,1001.99,VALID,0,VALID,91.3864,VALID,0,VALID,25.9232,VALID,23,VALID,0.88125,
2010-10-29, 00:04:04,VALID,1001.95,VALID,0,VALID,91.1346,VALID,0,VALID,25.9232,VALID,3,VALID,1.56953,
2010-10-29, 00:05:04,VALID,1001.94,VALID,0,VALID,90.9897,VALID,0,VALID,25.9038,VALID,55,VALID,0.739062,
2010-10-29, 00:06:04,VALID,1001.91,VALID,0,VALID,90.5243,VALID,0,VALID,25.9038,VALID,63,VALID,0.664063,
2010-10-29, 00:07:04,VALID,1001.91,VALID,0,VALID,90.6006,VALID,0,VALID,25.9232,VALID,66,VALID,0.492969,
2010-10-29, 00:08:04,VALID,1001.89,VALID,0,VALID,90.1505,VALID,0,VALID,25.9038,VALID,12,VALID,0.653516,
2010-10-29, 00:09:04,VALID,1001.9,VALID,0,VALID,89.975,VALID,0,VALID,25.9252,VALID,2,VALID,1.15117,
2010-10-29, 00:10:04,VALID,1001.9,VALID,0,VALID,89.441,VALID,0,VALID,25.9038,VALID,53,VALID,0.740625,
2010-10-29, 00:11:04,VALID,1001.93,VALID,0,VALID,89.6393,VALID,0,VALID,25.9232,VALID,16,VALID,0.921875,
2010-10-29, 00:12:04,VALID,1001.95,VALID,0,VALID,90.0284,VALID,0,VALID,25.9447,VALID,11,VALID,1.06211,
2010-10-29, 00:13:04,VALID,1001.96,VALID,0,VALID,90.1123,VALID,0,VALID,25.8843,VALID,33,VALID,0.698438,
2010-10-29, 00:14:04,VALID,1002.02,VALID,0,VALID,89.7233,VALID,0,VALID,25.8453,VALID,19,VALID,1.11875,
2010-10-29, 00:15:04,VALID,1002.01,VALID,0,VALID,90.3336,VALID,0,VALID,25.8239,VALID,25,VALID,1.04375,
2010-10-29, 00:16:04,VALID,1001.99,VALID,0,VALID,90.2954,VALID,0,VALID,25.7869,VALID,3,VALID,0.389453,
2010-10-29, 00:17:04,VALID,1002.02,VALID,0,VALID,90.448,VALID,0,VALID,25.748,VALID,53,VALID,0.578906,
2010-10-29, 00:18:04,VALID,1002.02,VALID,0,VALID,90.1963,VALID,0,VALID,25.7285,VALID,90,VALID,0.854688,
2010-10-29, 00:19:04,VALID,1002.01,VALID,0,VALID,89.9979,VALID,0,VALID,25.7285,VALID,57,VALID,0.491016,
2010-10-29, 00:20:04,VALID,1002.07,VALID,0,VALID,89.7461,VALID,0,VALID,25.709,VALID,45,VALID,0.976563,
2010-10-29, 00:21:04,VALID,1002.04,VALID,0,VALID,88.7086,VALID,0,VALID,25.8083,VALID,46,VALID,0.675391,
2010-10-29, 00:22:04,VALID,1002.12,VALID,0,VALID,86.9769,VALID,0,VALID,25.8259,VALID,81,VALID,1.69219,
2010-10-29, 00:23:04,VALID,1002.12,VALID,0,VALID,84.7569,VALID,0,VALID,25.8648,VALID,37,VALID,1.52031,
2010-10-29, 00:24:04,VALID,1002.11,VALID,0,VALID,84.5204,VALID,0,VALID,25.9038,VALID,1,VALID,0.444141,
2010-10-29, 00:25:04,VALID,1002.12,VALID,0,VALID,84.9247,VALID,0,VALID,25.9252,VALID,51,VALID,0.835547,
2010-10-29, 00:26:04,VALID,1002.13,VALID,0,VALID,83.2311,VALID,0,VALID,25.8863,VALID,77,VALID,1.05703,
2010-10-29, 00:27:04,VALID,1002.12,VALID,0,VALID,83.2692,VALID,0,VALID,25.8648,VALID,45,VALID,0.450391,
2010-10-29, 00:28:04,VALID,1002.14,VALID,0,VALID,81.8731,VALID,0,VALID,25.8259,VALID,24,VALID,0.986328,
2010-10-29, 00:29:04,VALID,1002.14,VALID,0,VALID,80.9806,VALID,0,VALID,25.8453,VALID,85,VALID,0.612109,
2010-10-29, 00:30:04,VALID,1002.16,VALID,0,VALID,80.0193,VALID,0,VALID,25.9057,VALID,75,VALID,1.73203,
2010-10-29, 00:31:04,VALID,1002.17,VALID,0,VALID,80.6754,VALID,0,VALID,25.8843,VALID,91,VALID,0.666797,
2010-10-29, 00:32:04,VALID,1002.13,VALID,0,VALID,80.2024,VALID,0,VALID,25.8843,VALID,39,VALID,0.636328,
2010-10-29, 00:33:04,VALID,1002.16,VALID,0,VALID,81.2018,VALID,0,VALID,25.8453,VALID,24,VALID,0.732422,
2010-10-29, 00:34:04,VALID,1002.13,VALID,0,VALID,81.629,VALID,0,VALID,25.8278,VALID,45,VALID,0.577734,
2010-10-29, 00:35:04,VALID,1002.15,VALID,0,VALID,81.8731,VALID,0,VALID,25.748,VALID,68,VALID,0.935938,
2010-10-29, 00:36:04,VALID,1002.21,VALID,0,VALID,82.5903,VALID,0,VALID,25.709,VALID,49,VALID,0.81875,
2010-10-29, 00:37:04,VALID,1002.18,VALID,0,VALID,82.9946,VALID,0,VALID,25.6895,VALID,15,VALID,1.18125,
2010-10-29, 00:38:04,VALID,1002.18,VALID,0,VALID,83.8872,VALID,0,VALID,25.67,VALID,46,VALID,0.355859,
2010-10-29, 00:39:04,VALID,1002.23,VALID,0,VALID,84.5204,VALID,0,VALID,25.6311,VALID,45,VALID,0.598437,
2010-10-29, 00:40:04,VALID,1002.24,VALID,0,VALID,85.7334,VALID,0,VALID,25.5551,VALID,23,VALID,0.910547,
2010-10-29, 00:41:04,VALID,1002.23,VALID,0,VALID,86.7175,VALID,0,VALID,25.4363,VALID,31,VALID,1.01797,
2010-10-29, 00:42:04,VALID,1002.25,VALID,0,VALID,87.4041,VALID,0,VALID,25.3993,VALID,33,VALID,0.549609,
2010-10-29, 00:43:04,VALID,1002.28,VALID,0,VALID,87.5719,VALID,0,VALID,25.3798,VALID,27,VALID,0.639453,
2010-10-29, 00:44:04,VALID,1002.26,VALID,0,VALID,87.6863,VALID,0,VALID,25.3195,VALID,29,VALID,0.864062,
2010-10-29, 00:45:04,VALID,1002.28,VALID,0,VALID,88.0068,VALID,0,VALID,25.3604,VALID,74,VALID,0.502344,
2010-10-29, 00:46:04,VALID,1002.31,VALID,0,VALID,88.2814,VALID,0,VALID,25.3,VALID,23,VALID,0.752344,
2010-10-29, 00:47:04,VALID,1002.32,VALID,0,VALID,88.701,VALID,0,VALID,25.2611,VALID,28,VALID,0.403906,
2010-10-29, 00:48:04,VALID,1002.33,VALID,0,VALID,89.0595,VALID,0,VALID,25.2202,VALID,28,VALID,0.423438,
2010-10-29, 00:49:04,VALID,1002.35,VALID,0,VALID,89.2655,VALID,0,VALID,25.2027,VALID,28,VALID,0.384375,
2010-10-29, 00:50:04,VALID,1002.33,VALID,0,VALID,89.5249,VALID,0.100563,VALID,25.1618,VALID,32,VALID,0.347656,
2010-10-29, 00:51:04,VALID,1002.29,VALID,0,VALID,89.4868,VALID,0,VALID,25.1423,VALID,108,VALID,0.35625,
2010-10-29, 00:52:04,VALID,1002.31,VALID,0,VALID,89.4028,VALID,0,VALID,25.1229,VALID,76,VALID,0.526172,
2010-10-29, 00:53:04,VALID,1002.3,VALID,0,VALID,89.3571,VALID,0,VALID,25.1248,VALID,78,VALID,0.11875,
2010-10-29, 00:54:04,VALID,1002.26,VALID,0,VALID,88.9909,VALID,0,VALID,25.1229,VALID,44,VALID,0.530078,
2010-10-29, 00:55:04,VALID,1002.28,VALID,0,VALID,89.029,VALID,0,VALID,25.1442,VALID,9,VALID,0.697266,
2010-10-29, 00:56:04,VALID,1002.28,VALID,0,VALID,89.0824,VALID,0,VALID,25.1229,VALID,358,VALID,0.50625,
2010-10-29, 00:57:04,VALID,1002.29,VALID,0,VALID,89.3418,VALID,0,VALID,25.1832,VALID,44,VALID,0.486719,
2010-10-29, 00:58:04,VALID,1002.28,VALID,0,VALID,89.5783,VALID,0.100563,VALID,25.1229,VALID,44,VALID,0.403516,
2010-10-29, 00:59:04,VALID,1002.27,VALID,0,VALID,89.4105,VALID,0,VALID,25.1248,VALID,37,VALID,0.485547,
2010-10-29, 01:00:04,VALID,1002.26,VALID,0,VALID,89.8148,VALID,0,VALID,25.1248,VALID,20,VALID,0.504687,
2010-10-29, 01:01:04,VALID,1002.26,VALID,0,VALID,89.6699,VALID,0,VALID,25.1034,VALID,30,VALID,1.03398,
2010-10-29, 01:02:04,VALID,1002.27,VALID,0,VALID,89.2808,VALID,0,VALID,25.1442,VALID,92,VALID,0.598437,
2010-10-29, 01:03:04,VALID,1002.31,VALID,0,VALID,89.1587,VALID,0,VALID,25.2027,VALID,115,VALID,0.723047,
2010-10-29, 01:04:04,VALID,1002.31,VALID,0,VALID,88.8307,VALID,0.100563,VALID,25.2611,VALID,115,VALID,0.933594,
2010-10-29, 01:05:04,VALID,1002.33,VALID,0,VALID,88.9756,VALID,0,VALID,25.3195,VALID,150,VALID,1.28594,
2010-10-29, 01:06:04,VALID,1002.32,VALID,0,VALID,88.5255,VALID,0,VALID,25.3584,VALID,134,VALID,1.41328,
2010-10-29, 01:07:04,VALID,1002.32,VALID,0,VALID,88.228,VALID,0,VALID,25.4169,VALID,118,VALID,0.966016,
2010-10-29, 01:08:04,VALID,1002.33,VALID,0,VALID,87.6787,VALID,0,VALID,25.4948,VALID,97,VALID,1.36484,
2010-10-29, 01:09:04,VALID,1002.35,VALID,0,VALID,86.6488,VALID,0,VALID,25.5532,VALID,114,VALID,1.88711,
2010-10-29, 01:10:04,VALID,1002.33,VALID,0,VALID,86.2979,VALID,0,VALID,25.6292,VALID,103,VALID,0.916797,
2010-10-29, 01:11:04,VALID,1002.31,VALID,0,VALID,85.3061,VALID,0.100563,VALID,25.709,VALID,78,VALID,1.53125,
2010-10-29, 01:12:04,VALID,1002.28,VALID,0,VALID,84.7111,VALID,0,VALID,25.7285,VALID,71,VALID,1.52617,
2010-10-29, 01:13:04,VALID,1002.25,VALID,0,VALID,84.8103,VALID,0,VALID,25.748,VALID,67,VALID,1.19141,
2010-10-29, 01:14:04,VALID,1002.23,VALID,0,VALID,84.8484,VALID,0,VALID,25.6876,VALID,74,VALID,0.732422,
2010-10-29, 01:15:04,VALID,1002.21,VALID,0,VALID,85.596,VALID,0,VALID,25.6915,VALID,47,VALID,0.509375,
2010-10-29, 01:16:04,VALID,1002.22,VALID,0,VALID,86.1835,VALID,0,VALID,25.5707,VALID,53,VALID,0.355859,
2010-10-29, 01:17:04,VALID,1002.25,VALID,0,VALID,86.4505,VALID,0,VALID,25.4928,VALID,93,VALID,0.291016,
2010-10-29, 01:18:04,VALID,1002.27,VALID,0,VALID,86.8701,VALID,0,VALID,25.4344,VALID,84,VALID,0.479297,
2010-10-29, 01:19:04,VALID,1002.27,VALID,0,VALID,87.3812,VALID,0.100563,VALID,25.3974,VALID,82,VALID,0.0285156,
2010-10-29, 01:20:04,VALID,1002.28,VALID,0,VALID,88.1517,VALID,0,VALID,25.339,VALID,72,VALID,0.458203,
2010-10-29, 01:21:04,VALID,1002.29,VALID,0,VALID,88.7697,VALID,0,VALID,25.2202,VALID,52,VALID,0.431641,
2010-10-29, 01:22:04,VALID,1002.31,VALID,0,VALID,89.4105,VALID,0,VALID,25.1423,VALID,53,VALID,0.377344,
2010-10-29, 01:23:04,VALID,1002.32,VALID,0,VALID,90.0055,VALID,0.100563,VALID,25.0644,VALID,46,VALID,0.645703,
2010-10-29, 01:24:04,VALID,1002.33,VALID,0,VALID,90.3946,VALID,0,VALID,24.9866,VALID,63,VALID,0.20625,
2010-10-29, 01:25:04,VALID,1002.36,VALID,0,VALID,91.1117,VALID,0,VALID,24.93,VALID,63,VALID,0.0875,
2010-10-29, 01:26:04,VALID,1002.34,VALID,0,VALID,91.6457,VALID,0,VALID,24.8716,VALID,63,VALID,0,
2010-10-29, 01:27:04,VALID,1002.34,VALID,0,VALID,91.7297,VALID,0,VALID,24.8113,VALID,63,VALID,0.386328,
2010-10-29, 01:28:04,VALID,1002.37,VALID,0,VALID,91.9356,VALID,0,VALID,24.7937,VALID,63,VALID,0.103906,
2010-10-29, 01:29:04,VALID,1002.37,VALID,0,VALID,92.2789,VALID,0,VALID,24.7548,VALID,63,VALID,0.0246094,
2010-10-29, 01:30:04,VALID,1002.43,VALID,0,VALID,92.607,VALID,0,VALID,24.714,VALID,63,VALID,0.274219,
2010-10-29, 01:31:04,VALID,1002.45,VALID,0,VALID,92.9426,VALID,0,VALID,24.675,VALID,63,VALID,0.354688,
2010-10-29, 01:32:04,VALID,1002.46,VALID,0,VALID,94.1404,VALID,0.100563,VALID,24.638,VALID,59,VALID,0.609766,
2010-10-29, 01:33:04,VALID,1002.46,VALID,0,VALID,96.5893,VALID,0,VALID,24.5406,VALID,36,VALID,0.794141,
2010-10-29, 01:34:04,VALID,1002.47,VALID,0,VALID,103.203,VALID,0,VALID,24.4025,VALID,35,VALID,0.664063,
2010-10-29, 01:35:04,VALID,1002.47,VALID,0,INVALID,115.661,VALID,0,VALID,24.3246,VALID,52,VALID,0.350391,
2010-10-29, 01:36:04,VALID,1002.51,VALID,0,INVALID,143.995,VALID,0.100563,VALID,24.2662,VALID,52,VALID,0.474219,
2010-10-29, 01:37:04,VALID,1002.53,VALID,0,INVALID,162.098,VALID,0.100563,VALID,24.2468,VALID,56,VALID,0.307422,
2010-10-29, 01:38:04,VALID,1002.52,VALID,0,INVALID,163.617,VALID,0,VALID,24.2273,VALID,54,VALID,0.394922,
2010-10-29, 01:39:04,VALID,1002.5,VALID,0,INVALID,163.617,VALID,0.100563,VALID,24.2662,VALID,47,VALID,0.486719,
2010-10-29, 01:40:04,VALID,1002.56,VALID,0,INVALID,163.609,VALID,0.100563,VALID,24.3052,VALID,56,VALID,0.412109,
2010-10-29, 01:41:04,VALID,1002.55,VALID,0,INVALID,160.412,VALID,0.100563,VALID,24.383,VALID,68,VALID,0.506641,
2010-10-29, 01:42:04,VALID,1002.54,VALID,0,INVALID,151.96,VALID,0,VALID,24.4414,VALID,54,VALID,0.950391,
2010-10-29, 01:43:04,VALID,1002.52,VALID,0,INVALID,141.15,VALID,0.100563,VALID,24.5193,VALID,50,VALID,0.420703,
2010-10-29, 01:44:04,VALID,1002.54,VALID,0,INVALID,133.521,VALID,0,VALID,24.5193,VALID,51,VALID,0.465625,
2010-10-29, 01:45:04,VALID,1002.57,VALID,0,INVALID,132.765,VALID,0.100563,VALID,24.5193,VALID,60,VALID,0.394531,
2010-10-29, 01:46:04,VALID,1002.57,VALID,0,INVALID,134.139,VALID,0,VALID,24.5388,VALID,79,VALID,0.626172,
2010-10-29, 01:47:04,VALID,1002.57,VALID,0,INVALID,131.568,VALID,0,VALID,24.6185,VALID,66,VALID,0.984375,
2010-10-29, 01:48:04,VALID,1002.61,VALID,0,INVALID,125.709,VALID,0,VALID,24.6769,VALID,67,VALID,0.396875,
2010-10-29, 01:49:04,VALID,1002.62,VALID,0,INVALID,123.832,VALID,0,VALID,24.7353,VALID,62,VALID,0.55,
2010-10-29, 01:50:04,VALID,1002.67,VALID,0,INVALID,116.257,VALID,0,VALID,24.7724,VALID,62,VALID,0.292578,
2010-10-29, 01:51:04,VALID,1002.69,VALID,0,INVALID,111.107,VALID,0,VALID,24.7919,VALID,37,VALID,0.583203,
2010-10-29, 01:52:04,VALID,1002.68,VALID,0,INVALID,110.97,VALID,0.100563,VALID,24.8697,VALID,45,VALID,1.01133,
2010-10-29, 01:53:04,VALID,1002.67,VALID,0,VALID,104,VALID,0.100563,VALID,24.9476,VALID,86,VALID,0.99375,
2010-10-29, 01:54:04,VALID,1002.69,VALID,0,VALID,104,VALID,0.100563,VALID,25.0079,VALID,87,VALID,0.968359,
2010-10-29, 01:55:04,VALID,1002.71,VALID,0,VALID,103.165,VALID,0.100563,VALID,25.0839,VALID,75,VALID,1.00469,
2010-10-29, 01:56:04,VALID,1002.71,VALID,0,VALID,101.571,VALID,0.100563,VALID,25.1229,VALID,79,VALID,0.795313,
2010-10-29, 01:57:04,VALID,1002.73,VALID,0,VALID,102.586,VALID,0.100563,VALID,25.1423,VALID,70,VALID,0.717578,
2010-10-29, 01:58:04,VALID,1002.74,VALID,0,VALID,101.525,VALID,0.100563,VALID,25.1813,VALID,28,VALID,0.880078,
2010-10-29, 01:59:04,VALID,1002.78,VALID,0,VALID,101.464,VALID,0.100563,VALID,25.2397,VALID,68,VALID,0.496875,
2010-10-29, 02:00:04,VALID,1002.79,VALID,0,VALID,100.213,VALID,0.100563,VALID,25.2202,VALID,76,VALID,0.535937,
2010-10-29, 02:01:04,VALID,1002.8,VALID,0,VALID,100.152,VALID,0.100563,VALID,25.2007,VALID,32,VALID,0.875,
2010-10-29, 02:02:04,VALID,1002.79,VALID,0,VALID,101.251,VALID,0.100563,VALID,25.2007,VALID,17,VALID,0.845703,
2010-10-29, 02:03:04,VALID,1002.78,VALID,0,VALID,103.272,VALID,0,VALID,25.1813,VALID,31,VALID,0.796484,
2010-10-29, 02:04:04,VALID,1002.77,VALID,0,VALID,104,VALID,0.100563,VALID,25.2202,VALID,79,VALID,0.897266,
2010-10-29, 02:05:04,VALID,1002.79,VALID,0,VALID,104,VALID,0,VALID,25.224,VALID,33,VALID,0.492188,
2010-10-29, 02:06:04,VALID,1002.76,VALID,0,INVALID,111.153,VALID,0,VALID,25.2221,VALID,91,VALID,0.4875,
2010-10-29, 02:07:04,VALID,1002.75,VALID,0,INVALID,111.611,VALID,0,VALID,25.2416,VALID,69,VALID,0.475781,
2010-10-29, 02:08:04,VALID,1002.72,VALID,0,INVALID,112.61,VALID,0,VALID,25.2611,VALID,83,VALID,0.858984,
2010-10-29, 02:09:04,VALID,1002.72,VALID,0,INVALID,112.045,VALID,0,VALID,25.2806,VALID,95,VALID,0.980078,
2010-10-29, 02:10:04,VALID,1002.72,VALID,0,INVALID,111.015,VALID,0,VALID,25.3176,VALID,31,VALID,0.550781,
2010-10-29, 02:11:04,VALID,1002.68,VALID,0,VALID,104,VALID,0.100563,VALID,25.339,VALID,30,VALID,0.446484,
2010-10-29, 02:12:04,VALID,1002.66,VALID,0,VALID,104,VALID,0.100563,VALID,25.3195,VALID,42,VALID,0.435937,
2010-10-29, 02:13:04,VALID,1002.63,VALID,0,VALID,104,VALID,0.100563,VALID,25.3,VALID,73,VALID,0.749219,
2010-10-29, 02:14:04,VALID,1002.62,VALID,0,INVALID,109.062,VALID,0.100563,VALID,25.339,VALID,112,VALID,0.599219,
2010-10-29, 02:15:04,VALID,1002.59,VALID,0,VALID,104,VALID,0.100563,VALID,25.3584,VALID,76,VALID,0.825391,
2010-10-29, 02:16:04,VALID,1002.6,VALID,0,VALID,104,VALID,0.201126,VALID,25.3974,VALID,83,VALID,0.662109,
2010-10-29, 02:17:04,VALID,1002.6,VALID,0,VALID,103.272,VALID,0.301689,VALID,25.3779,VALID,80,VALID,0.341797,
2010-10-29, 02:18:04,VALID,1002.61,VALID,0,VALID,102.402,VALID,0.301689,VALID,25.339,VALID,81,VALID,0.165625,
2010-10-29, 02:19:04,VALID,1002.65,VALID,0,VALID,102.28,VALID,0.402252,VALID,25.3409,VALID,70,VALID,0.216797,
2010-10-29, 02:20:04,VALID,1002.64,VALID,0,VALID,100.655,VALID,0.502815,VALID,25.339,VALID,87,VALID,0.603125,
2010-10-29, 02:21:04,VALID,1002.68,VALID,0,VALID,99.6561,VALID,0.603378,VALID,25.2981,VALID,87,VALID,0.415234,
2010-10-29, 02:22:04,VALID,1002.68,VALID,0,VALID,99.5111,VALID,0.804504,VALID,25.3195,VALID,87,VALID,0.276563,
2010-10-29, 02:23:04,VALID,1002.7,VALID,0,VALID,99.8773,VALID,1.00563,VALID,25.2611,VALID,27,VALID,0.501562,
2010-10-29, 02:24:04,VALID,1002.76,VALID,0,VALID,100.518,VALID,1.20676,VALID,25.1813,VALID,30,VALID,0.697656,
2010-10-29, 02:25:04,VALID,1002.75,VALID,0,VALID,103.127,VALID,1.30732,VALID,25.1053,VALID,7,VALID,0.84375,
2010-10-29, 02:26:04,VALID,1002.78,VALID,0,VALID,104,VALID,1.50844,VALID,25.0469,VALID,360,VALID,0.658203,
2010-10-29, 02:27:04,VALID,1002.8,VALID,0,INVALID,110.825,VALID,1.70957,VALID,25.0274,VALID,359,VALID,0.827734,
2010-10-29, 02:28:04,VALID,1002.85,VALID,0,INVALID,117.691,VALID,1.9107,VALID,24.969,VALID,358,VALID,0.655078,
2010-10-29, 02:29:04,VALID,1002.81,VALID,0,INVALID,132.056,VALID,2.31295,VALID,24.9106,VALID,346,VALID,0.985937,
2010-10-29, 02:30:04,VALID,1002.85,VALID,0,INVALID,129.981,VALID,2.81576,VALID,24.8892,VALID,31,VALID,0.812891,
2010-10-29, 02:31:04,VALID,1002.86,VALID,0,INVALID,120.964,VALID,3.41914,VALID,24.9476,VALID,346,VALID,0.55625,
2010-10-29, 02:32:04,VALID,1002.85,VALID,0,INVALID,118.53,VALID,4.22364,VALID,24.93,VALID,346,VALID,0.183984,
2010-10-29, 02:33:04,VALID,1002.86,VALID,0,INVALID,125.991,VALID,5.02815,VALID,24.8716,VALID,346,VALID,0.630078,
2010-10-29, 02:34:04,VALID,1002.87,VALID,0,INVALID,140.844,VALID,5.73209,VALID,24.8522,VALID,346,VALID,0.654297,
2010-10-29, 02:35:04,VALID,1002.8,VALID,0,INVALID,143.164,VALID,6.73772,VALID,24.7724,VALID,13,VALID,0.734766,
2010-10-29, 02:36:04,VALID,1002.81,VALID,0,INVALID,159.23,VALID,7.94447,VALID,24.6945,VALID,13,VALID,0.589844,
2010-10-29, 02:37:04,VALID,1002.8,VALID,0,INVALID,163.594,VALID,9.15123,VALID,24.599,VALID,13,VALID,0.609766,
2010-10-29, 02:38:04,VALID,1002.77,VALID,0,INVALID,163.655,VALID,10.4585,VALID,24.5212,VALID,13,VALID,0.651172,
2010-10-29, 02:39:04,VALID,1002.76,VALID,0,INVALID,163.624,VALID,11.7659,VALID,24.4822,VALID,13,VALID,0.626953,
2010-10-29, 02:40:04,VALID,1002.73,VALID,0,INVALID,163.655,VALID,13.3749,VALID,24.4628,VALID,13,VALID,0.417188,
2010-10-29, 02:41:04,VALID,1002.74,VALID,0,INVALID,163.632,VALID,15.185,VALID,24.4433,VALID,13,VALID,0.305469,
2010-10-29, 02:42:04,VALID,1002.74,VALID,0,INVALID,163.655,VALID,16.8946,VALID,24.4043,VALID,13,VALID,0.267188,
2010-10-29, 02:43:04,VALID,1002.75,VALID,0,INVALID,163.639,VALID,18.3025,VALID,24.3654,VALID,13,VALID,0.0640625,
2010-10-29, 02:44:04,VALID,1002.79,VALID,0,INVALID,163.632,VALID,19.107,VALID,24.3459,VALID,77,VALID,0.486719,
2010-10-29, 02:45:04,VALID,1002.77,VALID,0,INVALID,163.662,VALID,20.012,VALID,24.3849,VALID,85,VALID,0.454297,
2010-10-29, 02:46:04,VALID,1002.79,VALID,0,INVALID,163.639,VALID,21.1182,VALID,24.4238,VALID,85,VALID,0.0273438,
2010-10-29, 02:47:04,VALID,1002.77,VALID,0,INVALID,163.647,VALID,22.4255,VALID,24.4414,VALID,85,VALID,0.420312,
2010-10-29, 02:48:04,VALID,1002.79,VALID,0,INVALID,163.639,VALID,23.8334,VALID,24.5212,VALID,97,VALID,0.613281,
2010-10-29, 02:49:04,VALID,1002.78,VALID,0,INVALID,163.624,VALID,25.3419,VALID,24.599,VALID,89,VALID,0.594531,
2010-10-29, 02:50:04,VALID,1002.8,VALID,0,INVALID,163.624,VALID,27.0514,VALID,24.675,VALID,75,VALID,0.533203,
2010-10-29, 02:51:04,VALID,1002.81,VALID,0,INVALID,163.617,VALID,28.2582,VALID,24.7743,VALID,75,VALID,0.370313,
2010-10-29, 02:52:04,VALID,1002.8,VALID,0,INVALID,163.594,VALID,28.9621,VALID,24.8327,VALID,69,VALID,0.713672,
2010-10-29, 02:53:04,VALID,1002.82,VALID,0,INVALID,160.542,VALID,30.37,VALID,24.8716,VALID,56,VALID,0.896875,
2010-10-29, 02:54:04,VALID,1002.83,VALID,0,INVALID,152.7,VALID,30.4706,VALID,24.8911,VALID,36,VALID,0.212891,
2010-10-29, 02:55:04,VALID,1002.84,VALID,0,INVALID,146.658,VALID,30.9734,VALID,24.9106,VALID,58,VALID,0.359766,
2010-10-29, 02:56:04,VALID,1002.86,VALID,0,INVALID,143.385,VALID,32.7835,VALID,24.9282,VALID,83,VALID,1.03516,
2010-10-29, 02:57:04,VALID,1002.87,VALID,0,INVALID,135.169,VALID,35.0965,VALID,25.0274,VALID,81,VALID,0.396484,
2010-10-29, 02:58:04,VALID,1002.9,VALID,0,INVALID,127.692,VALID,37.2083,VALID,25.0469,VALID,81,VALID,0.259766,
2010-10-29, 02:59:04,VALID,1002.88,VALID,0,INVALID,125.426,VALID,42.0353,VALID,25.0858,VALID,69,VALID,0.41875,
2010-10-29, 03:00:04,VALID,1002.91,VALID,0,INVALID,124.877,VALID,45.1528,VALID,25.045,VALID,69,VALID,0.125,
2010-10-29, 03:01:04,VALID,1002.9,VALID,0,INVALID,124.32,VALID,44.3483,VALID,25.0663,VALID,69,VALID,0.365234,
2010-10-29, 03:02:04,VALID,1002.94,VALID,0,INVALID,123.313,VALID,49.5775,VALID,25.1053,VALID,69,VALID,0,
2010-10-29, 03:03:04,VALID,1002.97,VALID,0,INVALID,120.605,VALID,59.3321,VALID,25.1423,VALID,99,VALID,0.866406,
2010-10-29, 03:04:04,VALID,1002.96,VALID,0,INVALID,117.035,VALID,64.7625,VALID,25.2416,VALID,95,VALID,0.142578,
2010-10-29, 03:05:04,VALID,1002.97,VALID,0,INVALID,111.29,VALID,49.8792,VALID,25.3,VALID,95,VALID,0.177734,
2010-10-29, 03:06:04,VALID,1002.99,VALID,0,VALID,104,VALID,47.2646,VALID,25.337,VALID,95,VALID,0.246875,
2010-10-29, 03:07:04,VALID,1002.99,VALID,0,VALID,104,VALID,54.304,VALID,25.3974,VALID,95,VALID,0.180078,
2010-10-29, 03:08:04,VALID,1002.97,VALID,0,VALID,102.647,VALID,52.4939,VALID,25.4363,VALID,95,VALID,0.146094,
2010-10-29, 03:09:04,VALID,1003.01,VALID,0,VALID,102.608,VALID,51.6894,VALID,25.4539,VALID,95,VALID,0.125781,
2010-10-29, 03:10:04,VALID,1003,VALID,0,VALID,103.188,VALID,51.2871,VALID,25.4734,VALID,95,VALID,0.00195313,
2010-10-29, 03:11:04,VALID,1003.01,VALID,0,VALID,102.319,VALID,52.2927,VALID,25.4753,VALID,95,VALID,0.111719,
2010-10-29, 03:12:04,VALID,1003,VALID,0,VALID,101.273,VALID,53.9017,VALID,25.4539,VALID,87,VALID,0.29375,
2010-10-29, 03:13:04,VALID,1002.97,VALID,0,VALID,101.8,VALID,56.0136,VALID,25.4948,VALID,87,VALID,0.0914062,
2010-10-29, 03:14:04,VALID,1003.02,VALID,0,VALID,102.944,VALID,58.3265,VALID,25.4753,VALID,87,VALID,0.134766,
2010-10-29, 03:15:04,VALID,1003.05,VALID,0,VALID,102.502,VALID,60.9411,VALID,25.4753,VALID,87,VALID,0,
2010-10-29, 03:16:04,VALID,1003.04,VALID,0,VALID,104,VALID,63.958,VALID,25.4753,VALID,87,VALID,0,
2010-10-29, 03:17:04,VALID,1003.07,VALID,0,INVALID,110.26,VALID,64.9637,VALID,25.4344,VALID,87,VALID,0,
2010-10-29, 03:18:04,VALID,1003.12,VALID,0,INVALID,114.006,VALID,67.5783,VALID,25.4363,VALID,87,VALID,0,
2010-10-29, 03:19:04,VALID,1003.11,VALID,0,INVALID,117.431,VALID,70.8969,VALID,25.4149,VALID,82,VALID,0.230859,
2010-10-29, 03:20:04,VALID,1003.13,VALID,0,INVALID,116.531,VALID,73.2098,VALID,25.4363,VALID,76,VALID,0.312109,
2010-10-29, 03:21:04,VALID,1003.16,VALID,0,INVALID,114.777,VALID,75.02,VALID,25.4558,VALID,76,VALID,0.0738281,
2010-10-29, 03:22:04,VALID,1003.17,VALID,0,INVALID,109.902,VALID,77.534,VALID,25.4948,VALID,108,VALID,0.517187,
2010-10-29, 03:23:04,VALID,1003.24,VALID,0,INVALID,109.131,VALID,80.1487,VALID,25.5532,VALID,94,VALID,0.369531,
2010-10-29, 03:24:04,VALID,1003.21,VALID,0,VALID,103.165,VALID,82.7633,VALID,25.6311,VALID,99,VALID,0.768359,
2010-10-29, 03:25:04,VALID,1003.23,VALID,0,VALID,98.8016,VALID,85.5791,VALID,25.748,VALID,98,VALID,0.567187,
2010-10-29, 03:26:04,VALID,1003.22,VALID,0,VALID,97.1919,VALID,88.4954,VALID,25.8044,VALID,72,VALID,0.328516,
2010-10-29, 03:27:04,VALID,1003.25,VALID,0,VALID,97.2453,VALID,91.2106,VALID,25.8648,VALID,72,VALID,0.485156,
2010-10-29, 03:28:04,VALID,1003.24,VALID,0,VALID,96.9478,VALID,93.8252,VALID,25.9232,VALID,77,VALID,0.200781,
2010-10-29, 03:29:04,VALID,1003.24,VALID,0,VALID,96.7266,VALID,97.0432,VALID,25.9622,VALID,77,VALID,0.291797,
2010-10-29, 03:30:04,VALID,1003.24,VALID,0,VALID,98.0006,VALID,101.066,VALID,25.9817,VALID,76,VALID,0.447266,
2010-10-29, 03:31:04,VALID,1003.26,VALID,0,VALID,101.64,VALID,104.585,VALID,26.0012,VALID,26,VALID,0.427734,
2010-10-29, 03:32:04,VALID,1003.26,VALID,0,VALID,101.037,VALID,108.306,VALID,25.9817,VALID,26,VALID,0.436719,
2010-10-29, 03:33:04,VALID,1003.26,VALID,0,VALID,97.6344,VALID,111.323,VALID,25.9817,VALID,26,VALID,0.469922,
2010-10-29, 03:34:04,VALID,1003.24,VALID,0,VALID,97.7107,VALID,111.927,VALID,26.0206,VALID,26,VALID,0.454688,
2010-10-29, 03:35:04,VALID,1003.24,VALID,0,VALID,95.5136,VALID,115.647,VALID,26.0401,VALID,53,VALID,0.438281,
2010-10-29, 03:36:04,VALID,1003.21,VALID,0,VALID,96.5435,VALID,124.296,VALID,26.0966,VALID,52,VALID,0.215625,
2010-10-29, 03:37:04,VALID,1003.19,VALID,0,VALID,97.3064,VALID,125.402,VALID,26.1765,VALID,52,VALID,0.05,
2010-10-29, 03:38:04,VALID,1003.16,VALID,0,VALID,95.2695,VALID,131.034,VALID,26.2154,VALID,111,VALID,0.475391,
2010-10-29, 03:39:04,VALID,1003.18,VALID,0,VALID,94.3616,VALID,136.363,VALID,26.2524,VALID,111,VALID,0.603906,